Regional Weather Roundup
Issued by NWS

Home | Current Version | Previous Version | Text Only | Print | Product List | Glossary Off
Versions: 1 2 3 4 5 6 7 8 9 10 11 12 13 14 15 16 17 18 19 20 21 22 23 24 25 26 27 28 29 30 31 32 33 34 35 36 37 38 39 40 41 42 43 44 45 46 47 48 49 50

000
ASUS43 KIND 300959
RWRIN

WEATHER ROUNDUP FOR INDIANA
NATIONAL WEATHER SERVICE INDIANAPOLIS IN
600 AM EDT MON MAR 30 2015

NOTE: "FAIR" INDICATES FEW OR NO CLOUDS BELOW 12,000 FEET WITH NO
SIGNIFICANT WEATHER AND/OR OBSTRUCTIONS TO VISIBILITY.

* - STATION DOES NOT REPORT WEATHER SUCH AS PRECIPITATION OR FOG.

+ - STATION NOT QUALITY CONTROLLED BY THE NATIONAL WEATHER SERVICE.
    USE DATA WITH CAUTION...ESPECIALLY DEWPOINT AND RELATIVE
    HUMIDITY OBSERVATIONS.

INZ001>003-010>013-019-020-301100-
NORTHWEST INDIANA

CITY           SKY/WX    TMP DP  RH WIND       PRES   REMARKS
GARY /AIRPORT/ CLEAR     34  27  75 W6        29.98S WCI  29
KNOX *+          N/A     32  27  80 W9        29.96R WCI  24

$$

LMZ046-743>745-301100-
SOUTHERN LAKE MICHIGAN

STATION/POSITION TIME  TEMP WIND        PRES
                       AIR  DIR/SP/G
                 (UTC) (F)  (DEG/KT/KT) (MB)
BURNS HARBOR     0900   39  250/ 10/ 11 1015.6R
MICHIGAN CITY    0900   38  220/ 13/ 14   N/A

$$

INZ004-005-014>016-021>024-301100-
NORTH CENTRAL INDIANA

CITY           SKY/WX    TMP DP  RH WIND       PRES   REMARKS
GOSHEN         CLEAR     37  28  70 W10       29.93S
SOUTH BEND     CLEAR     33  27  78 W9        29.96R WCI  25
WARSAW +       CLEAR     34  30  86 W9        29.94S WCI  26

$$

INZ006>009-017-018-025>027-301100-
NORTHEAST INDIANA

CITY           SKY/WX    TMP DP  RH WIND       PRES   REMARKS
ANGOLA *+      CLEAR     36  28  75 W7        29.90R
FORT WAYNE     CLEAR     35  29  78 W12       29.94S WCI  27

$$

INZ028-029-035-036-043>045-051>053-301100-
WEST CENTRAL INDIANA

CITY           SKY/WX    TMP DP  RH WIND       PRES   REMARKS
CRAWFORDSVL +  CLEAR     35  29  79 W8        30.00S WCI  28
GREENCASTLE +  CLEAR     39  34  81 W5        30.01S
LAFAYETTE      CLEAR     34  30  85 W8        30.00S WCI  27
TERRE HAUTE    CLEAR     39  36  89 W6        30.03S

$$

INZ030>032-037>040-046>048-054>057-064-065-301100-
CENTRAL INDIANA

CITY           SKY/WX    TMP DP  RH WIND       PRES   REMARKS
CP ATTERBURY + CLEAR     41  36  81 W5        30.01R
FRANKFORT +    CLEAR     33  33 100 W8        30.00F WCI  26
GREENWOOD *+   CLEAR     39  34  81 CALM      30.00R
INDIANAPOLIS   CLEAR     37  33  85 W7        29.98S
-EAGLE CREEK   CLEAR     39  35  86 W7        29.98F
KOKOMO *+        N/A     36  30  80 W10       29.97S
MT COMFORT *+  CLEAR     34  28  80 W8        29.99S WCI  27
SHELBYVILLE    CLEAR     39  33  79 W6        29.99R

$$

INZ033-034-041-042-049-050-058-059-301100-
EAST CENTRAL INDIANA

CITY           SKY/WX    TMP DP  RH WIND       PRES   REMARKS
MUNCIE         CLEAR     38  32  79 W6        29.97S

$$

INZ060-061-067>069-081>083-085>088-301100-
SOUTHWEST INDIANA

CITY           SKY/WX    TMP DP  RH WIND       PRES   REMARKS
EVANSVILLE     CLEAR     49  39  68 NW7       30.07R
HUNTINGBURG *+ CLEAR     45  36  70 NW5       30.05R

$$

INZ062-063-066-070>080-084-089>092-301100-
SOUTH CENTRAL AND SOUTHEAST INDIANA

CITY           SKY/WX    TMP DP  RH WIND       PRES   REMARKS
BLOOMINGTON    CLEAR     42  39  89 NW3       30.01R
SEYMOUR +      CLEAR     37  36  93 W5        30.02R

$$




USA.gov is the U.S. government's official web portal to all federal, state and local government web resources and services.